Weather History for Anniston, AL

Change the Weather History Date:

Wednesday, March 14, 2012

  Actual Average Record
Temperature  
Mean Temperature 67 °F 54 °F  
Max Temperature 80 °F 66 °F 83 °F (1967)
Min Temperature 54 °F 43 °F 12 °F (1993)
Degree Days  
Heating Degree Days 0    
Month to date heating degree days 96  
Since 1 July heating degree days 1976  
Cooling Degree Days 2    
Growing Degree Days 17 (Base 50)    
Moisture  
Dew Point 58 °F    
Average Humidity 73    
Maximum Humidity 100    
Minimum Humidity 45    
Precipitation  
Precipitation 0.00 in 0.16 in 2.05 in (1964)
Month to date precipitation 4.84 2.38  
Year to date precipitation 10.85 11.98  
Sea Level Pressure  
Sea Level Pressure 30.24 in    
Wind  
Wind Speed 2 mph (WSW)    
Max Wind Speed 8 mph    
Max Gust Speed 12 mph    
Visibility 6 miles    
Events Fog    
T = Trace of Precipitation, MM = Missing Value Source: NWS Daily Summary

Daily Weather History Graph

Daily Weather History Graph

Search for Another Location

Airport:

Trip Planner

Search our weather history database for the weather conditions in past years. The results will help you decide how hot, cold, wet, or windy it might be!

Date:

Astronomy

Mar. 14, 2012 Rise Set
Actual Time 6:54 AM CDT 6:50 PM CDT
Civil Twilight 6:29 AM CDT 7:15 PM CDT
Nautical Twilight 6:00 AM CDT 7:44 PM CDT
Astronomical Twilight 5:31 AM CDT 8:13 PM CDT
Moon 1:06 AM CDT (3/14) 11:24 AM CDT (3/14)
Length of Visible Light 12h 46m
Length of Day
11h 56m
Waning Gibbous, 54% of the Moon is Illuminated
Mar 14
Waning Gibbous
Mar 14
Last Quarter
Mar 22
New
Mar 30
First Quarter
Apr 6
Full

Hourly Weather History & Observations

Time (CDT) Temp. Dew Point Humidity Pressure Visibility Wind Dir Wind Speed Gust Speed Precip Events Conditions
12:53 AM 57.9 °F 55.9 °F 93% 30.21 in 8.0 mi Calm Calm - N/A   Clear
1:53 AM 57.9 °F 55.9 °F 93% 30.21 in 8.0 mi Calm Calm - N/A   Scattered Clouds
2:53 AM 57.2 °F 55.4 °F 94% 30.21 in 6.0 mi Calm Calm - N/A   Clear
3:51 AM 55.4 °F 53.6 °F 94% 30.20 in 1.8 mi Calm Calm - N/A   Clear
3:53 AM 55.0 °F 54.0 °F 96% 30.19 in 1.2 mi Calm Calm - N/A   Clear
3:56 AM 55.4 °F 53.6 °F 94% 30.20 in 0.5 mi Calm Calm - N/A Fog Fog
4:33 AM 55.4 °F 53.6 °F 94% 30.20 in 1.0 mi Calm Calm - N/A   Mist
4:36 AM 55.4 °F 53.6 °F 94% 30.21 in 2.5 mi Calm Calm - N/A   Scattered Clouds
4:38 AM 55.4 °F 53.6 °F 94% 30.21 in 4.0 mi Calm Calm - N/A   Mostly Cloudy
4:53 AM 55.0 °F 54.0 °F 96% 30.20 in 4.0 mi Calm Calm - N/A   Mostly Cloudy
5:53 AM 57.9 °F 57.0 °F 97% 30.23 in 5.0 mi Calm Calm - N/A   Overcast
6:13 AM 57.2 °F 55.4 °F 94% 30.24 in 2.0 mi Calm Calm - N/A   Overcast
6:23 AM 57.2 °F 57.2 °F 100% 30.24 in 1.5 mi Calm Calm - N/A   Overcast
6:53 AM 57.9 °F 57.0 °F 97% 30.25 in 1.0 mi Calm Calm - 0.01 in   Overcast
7:15 AM 57.2 °F 57.2 °F 100% 30.25 in 0.5 mi Calm Calm - N/A Fog Fog
7:33 AM 59.0 °F 57.2 °F 94% 30.26 in 0.8 mi NE 3.5 mph - N/A   Overcast
7:46 AM 59.0 °F 57.2 °F 94% 30.26 in 1.0 mi Calm Calm - N/A   Overcast
7:53 AM 59.0 °F 59.0 °F 100% 30.27 in 0.8 mi Calm Calm - N/A   Overcast
8:14 AM 60.8 °F 59.0 °F 94% 30.28 in 1.2 mi Calm Calm - N/A   Overcast
8:53 AM 62.1 °F 61.0 °F 96% 30.28 in 1.2 mi Calm Calm - N/A   Overcast
9:04 AM 62.6 °F 60.8 °F 94% 30.29 in 1.5 mi Calm Calm - N/A   Overcast
9:45 AM 64.4 °F 64.4 °F 100% 30.30 in 3.0 mi Calm Calm - N/A   Overcast
9:53 AM 64.9 °F 63.0 °F 93% 30.29 in 6.0 mi WSW 3.5 mph - N/A   Overcast
10:10 AM 66.2 °F 64.4 °F 94% 30.30 in 7.0 mi WSW 5.8 mph - N/A   Overcast
10:53 AM 66.9 °F 64.0 °F 90% 30.29 in 5.0 mi WSW 6.9 mph - N/A   Overcast
11:29 AM 68.0 °F 62.6 °F 83% 30.30 in 9.0 mi West 3.5 mph - N/A   Overcast
11:53 AM 68.0 °F 63.0 °F 84% 30.30 in 10.0 mi WSW 5.8 mph - N/A   Overcast
12:53 PM 69.1 °F 63.0 °F 81% 30.28 in 9.0 mi WSW 4.6 mph - N/A   Overcast
1:50 PM 73.4 °F 62.6 °F 69% 30.25 in 10.0 mi Calm Calm - N/A   Scattered Clouds
1:53 PM 73.0 °F 63.0 °F 71% 30.24 in 10.0 mi Variable 3.5 mph - N/A   Partly Cloudy
2:53 PM 77.0 °F 62.1 °F 60% 30.21 in 10.0 mi SW 6.9 mph - N/A   Clear
3:53 PM 79.0 °F 57.9 °F 48% 30.19 in 10.0 mi Calm Calm - N/A   Clear
4:53 PM 79.0 °F 55.9 °F 45% 30.17 in 10.0 mi Variable 3.5 mph - N/A   Clear
5:53 PM 75.9 °F 59.0 °F 56% 30.18 in 10.0 mi SW 3.5 mph - N/A   Clear
6:53 PM 71.1 °F 60.1 °F 68% 30.19 in 10.0 mi Calm Calm - N/A   Clear
7:53 PM 64.9 °F 59.0 °F 81% 30.21 in 10.0 mi Calm Calm - N/A   Clear
8:53 PM 64.0 °F 60.1 °F 87% 30.22 in 10.0 mi Calm Calm - N/A   Clear
9:53 PM 62.1 °F 59.0 °F 90% 30.24 in 10.0 mi Calm Calm - N/A   Clear
10:53 PM 60.8 °F 57.2 °F 88% 30.25 in 9.0 mi Calm Calm - N/A   Clear
11:53 PM 57.9 °F 55.9 °F 93% 30.24 in 8.0 mi Calm Calm - N/A   Clear